Location: Skanderborg
(56.0313°N, 9.9317°E)
Time: 00:09:22
(UTC+00:00)

Cosmos 1607 - Pass Details

Date: 15 August 2020
Orbit: 911 x 991 km, 65.0° (Epoch: 23 September)

Event Time Altitude Azimuth Distance (km) Brightness Sun altitude
Rises 21:49:10 0° 307° (NW) 3,674 8.1 -17.5°
Reaches altitude 10° 21:51:46 10° 311° (NW) 2,734 7.3 -17.6°
Maximum altitude 21:58:09 65° 33° (NNE) 1,083 4.3 -18.0°
Enters shadow 22:03:22 16° 113° (ESE) 2,320 5.6 -18.2°
